Regional Weather Roundup
Issued by NWS

Home | Current Version | Previous Version | Graphics & Text | Print | Product List | Glossary On
Versions: 1 2 3 4 5 6 7 8 9 10 11 12 13 14 15 16 17 18 19 20 21 22 23 24 25 26 27 28 29 30 31 32 33 34 35 36 37 38 39 40 41 42 43 44 45 46 47 48 49 50
000
ASUS43 KMKX 190820
RWRWI

WISCONSIN REGIONAL WEATHER ROUNDUP
NATIONAL WEATHER SERVICE MILWAUKEE/SULLIVAN WI
300 AM CDT THU APR 19 2018

NOTE: "FAIR" INDICATES FEW OR NO CLOUDS BELOW 12,000 FEET WITH NO
SIGNIFICANT WEATHER AND/OR OBSTRUCTIONS TO VISIBILITY.

WIZ001-002-006>008-014>016-023>028-190900-
NORTHWEST WISCONSIN

CITY           SKY/WX    TMP DP  RH WIND       PRES   REMARKS
SUPERIOR ARPT  FAIR      21  18  87 S3        30.29S
ASHLAND        FAIR      27  15  61 NW8       30.26R WCI  19
HAYWARD        FAIR      19  13  77 CALM      30.25R
SIREN          FAIR      22  16  78 CALM      30.28R
CUMBERLAND     FAIR      27  12  54 N5        30.25R WCI  21
RICE LAKE      FAIR      28  15  57 CALM      30.26R
CHETEK         FAIR      26  15  64 CALM      30.25R
LADYSMITH      FAIR      30  17  56 N8        30.24R WCI  23
EAU CLAIRE     FAIR      24  17  74 CALM      30.23R
MENOMONIE      FAIR      29  15  57 W3        30.26R
NEW RICHMOND   FAIR      28  14  56 NW5       30.28R WCI  22
OSCEOLA        FAIR      22  15  72 CALM      30.31R
$$

WIZ003>005-009-010-017-018-190900-
NORTH CENTRAL WISCONSIN

CITY           SKY/WX    TMP DP  RH WIND       PRES   REMARKS
MANITOWISH WTR FAIR      27  17  64 N3        30.19R
ARBOR VITAE    FAIR      23  15  71 N6        30.18R WCI  16
WOODRUFF       FAIR      23  15  71 N6        30.18R WCI  16
RHINELANDER    FAIR      28  16  60 N6        30.16R WCI  22
EAGLE RIVER    FAIR      25  15  66 N5        30.16R WCI  19
LAND O LAKES   FAIR      28  20  71 N9        30.19R WCI  20
PHILLIPS       FAIR      28  16  63 N3        30.21R
TOMAHAWK       FAIR      26  14  61 N3        30.18R
MEDFORD        FAIR      26  13  57 N6        30.18R WCI  20
MERRILL          N/A     27  16  62 NW5       30.18R WCI  22
$$

WIZ029-030-035-036-043>047-190900-
CENTRAL WISCONSIN

CITY           SKY/WX    TMP DP  RH WIND       PRES   REMARKS
WAUSAU         FAIR      28  17  63 NW6       30.15R WCI  22
MOSINEE        FAIR      30  19  64 N8        30.16R WCI  23
MARSHFIELD     FAIR      30  16  56 N9        30.15R WCI  22
STEVENS POINT  FAIR      28  15  57 N6        30.16R WCI  22
WAUPACA        FAIR      31  17  55 NW5       30.15R WCI  26
WAUTOMA        FAIR      27  19  72 NW5       30.15R WCI  22
WISC RAPIDS    FAIR      29  14  53 N7        30.17R WCI  22
CAMP DOUGLAS   FAIR      20  20  98 W8        30.17R WCI  11
$$

WIZ011>013-019>022-031-037>040-048>050-190900-
NORTHEAST WISCONSIN

CITY           SKY/WX    TMP DP  RH WIND       PRES   REMARKS
ANTIGO         FAIR      27  15  61 N7        30.14R WCI  19
SHAWANO        FAIR      33  19  56 N5        30.14R WCI  28
OCONTO         FAIR      32  19  58 N5        30.12R WCI  28
STURGEON BAY   FAIR      32  25  75 N13       30.10R WCI  22
GREEN BAY      FAIR      33  20  58 N17       30.11R WCI  22
MANITOWOC      FAIR      33  20  58 N10       30.09R WCI  25
APPLETON       FAIR      32  16  51 N13       30.10R WCI  22
CLINTONVILLE   FAIR      32  16  52 N6        30.14R WCI  26
OSHKOSH        FAIR      32  19  58 NW8       30.11R WCI  25
$$

WIZ032>034-041-042-053>061-190900-
SOUTHWEST WISCONSIN

CITY           SKY/WX    TMP DP  RH WIND       PRES   REMARKS
LA CROSSE      FAIR      25  24  96 N5        30.22R WCI  19
SPARTA         FOG       13  12  95 CALM      30.22R VSB 1/2
VIROQUA        FAIR      24  24 100 N5        30.18R WCI  18
BOSCOBEL       FAIR      27  25  92 CALM      30.20R FOG
PRAIRIE DU CHI FAIR      28  26  96 NW3       30.20R FOG
PLATTEVILLE    CLOUDY    32  32  99 N8        30.15R WCI  25
$$

WIZ056-057-062-063-064-067-068-190900-
SOUTH CENTRAL WISCONSIN

CITY           SKY/WX    TMP DP  RH WIND       PRES   REMARKS
REEDSBURG      FAIR      24  24 100 CALM      30.16R
BARABOO/DELLS  FAIR      25  25  98 CALM      30.14R
LONE ROCK      FAIR      27  26  96 W6        30.17R WCI  20
MINERAL POINT  FAIR      30  30 100 NW6       30.14R WCI  24
MADISON        FAIR      28  25  88 N8        30.12R WCI  20
MIDDLETON      FAIR      29  24  80 N8        30.13R WCI  21
WATERTOWN      FAIR      27  26  94 NW5       30.10R WCI  22
MONROE         CLOUDY    32  28  86 N12G17    30.10R WCI  23
JANESVILLE     FAIR      34  30  86 N8        30.10R WCI  27
$$

WIZ051-052-058>065-066-070>072-190900-
SOUTHEAST WISCONSIN

CITY           SKY/WX    TMP DP  RH WIND       PRES   REMARKS
MILWAUKEE      FAIR      34  27  75 NW9       30.07R WCI  27
WAUKESHA       FAIR      28  25  86 NW6       30.09R WCI  22
MILWAUKEE/TIMM FAIR      28  23  80 NW6       30.09R WCI  22
RACINE         FAIR      35  30  82 N13       30.08R WCI  26
BURLINGTON     MOCLDY    32  27  82 N6        30.08R WCI  27
KENOSHA        SLEET     35  30  82 N10       30.06R WCI  27
FOND DU LAC    FLURRIES  28  18  66 NW6       30.11R WCI  22
SHEBOYGAN      FAIR      30  20  66 N10       30.08R WCI  21
WEST BEND      FAIR      28  23  80 NW5       30.08R WCI  23
JUNEAU         FAIR      23  18  81 NW5       30.12R WCI  17
$$

LSZ147-162-190900-
LAKE SUPERIOR

STATION/POSITION TIME  TEMP    WIND        PRES    WAVE
                       AIR SEA DIR/SP/G            HT/PER
                 (UTC) (F)     (DEG/KT/KT) (MB)    (FT/S)
DEVILS ISLAND    0800   37     350/ 12/ 13 1025.7R
SAXON HARBOR     0740   22     200/  5/  5 1023.7S
$$

LMZ867-665-643>646-190900-
LAKE MICHIGAN

STATION/POSITION TIME  TEMP    WIND        PRES    WAVE
                       AIR SEA DIR/SP/G            HT/PER
                 (UTC) (F)     (DEG/KT/KT) (MB)    (FT/S)
NORTHPORT PIER   0740   33                 1019.0R
KEWAUNEE LAKESHO 0754   33     340/  8/ 12 1018.0R
SHEBOYGAN LAKESH 0800   35     330/ 13/ 16 1019.2R
PORT WASHINGTON  0730   32     320/  6/  9 1019.3R
MILWAUKEE LAKESH 0800   34     330/  8/ 10   N/A
KENOSHA   LAKESH 0800   36                 1017.9
$$

TC  - TEMPERATURE IN CELSIUS
VSB - VISIBILITY IN STATUTE MILES
WCI - WIND CHILL INDEX
HX  - HEAT INDEX





USA.gov is the U.S. government's official web portal to all federal, state and local government web resources and services.